contact:dominique.lefevre@mio.osupytheas.fr, maurice.libes@osupytheas.fr, didier.mallarino@osupytheas.fr
Project:EMSO http://www.emso-fr.org/EMSO-France
Depth: 2436.0 m
Title:EMSO Ligure Ouest : Data MII capteur AQUADOPP
Date,Latitude,Longitude,X_East,Y_North,Z_Up,Amplitude_X,Amplitude_Y,Amplitude_Z,Batterie,SoundSpeed,Heading,Pitch,Roll,Pressure,TIS,Speed,Direction
, degrees North, degrees East, m.s-1, m.s-1,m.s-1, 1, 1, 1, Volt, m.s-1, degree, degree, degree, dbar, degree_C, m.s-1, degree
2021-09-25T00:04:03,42.805,6.029,-0.003,0.012,-0.015,101.0,102.0,100.0,13.4,1505.2,327.5,-0.7,1.8,2470.736,13.29,0.012,346.0
2021-09-25T00:07:03,42.805,6.029,-0.036,0.0,-0.035,99.0,101.0,100.0,13.4,1505.2,330.1,-0.8,1.8,2470.702,13.29,0.036,270.0
2021-09-25T00:10:03,42.805,6.029,-0.006,-0.003,-0.001,102.0,102.0,99.0,13.4,1505.2,325.6,-0.7,1.8,2470.689,13.29,0.006,243.4
2021-09-25T00:13:03,42.805,6.029,-0.012,0.006,0.006,101.0,100.0,100.0,13.4,1505.2,326.8,-0.8,1.8,2470.693,13.29,0.013,296.6
2021-09-25T00:16:03,42.805,6.029,0.014,-0.002,0.0,101.0,101.0,100.0,13.4,1505.2,325.6,-0.8,1.8,2470.652,13.29,0.014,98.1
2021-09-25T00:19:03,42.805,6.029,-0.017,-0.004,-0.006,101.0,100.0,100.0,13.4,1505.2,331.6,-0.7,1.8,2470.636,13.29,0.017,256.8
2021-09-25T00:22:03,42.805,6.029,-0.011,-0.003,-0.003,101.0,100.0,100.0,13.3,1505.2,327.9,-0.7,1.8,2470.634,13.29,0.011,254.7
2021-09-25T00:25:03,42.805,6.029,0.007,-0.011,-0.004,101.0,101.0,99.0,13.4,1505.2,329.1,-0.8,1.8,2470.663,13.29,0.013,147.5
2021-09-25T00:28:03,42.805,6.029,-0.008,0.003,0.005,100.0,102.0,101.0,13.4,1505.2,327.2,-0.7,1.8,2470.638,13.29,0.008,290.6
2021-09-25T00:31:03,42.805,6.029,-0.026,0.011,-0.006,101.0,102.0,98.0,13.4,1505.2,328.4,-0.7,1.8,2470.658,13.3,0.028,292.9
2021-09-25T00:34:03,42.805,6.029,-0.017,-0.007,-0.012,100.0,100.0,100.0,13.4,1505.2,325.4,-0.8,1.8,2470.612,13.3,0.018,247.6
2021-09-25T00:37:03,42.805,6.029,-0.02,-0.002,0.002,103.0,99.0,100.0,13.4,1505.2,326.8,-0.7,1.8,2470.623,13.3,0.02,264.3
2021-09-25T00:40:03,42.805,6.029,-0.009,-0.01,-0.024,101.0,101.0,100.0,13.3,1505.2,327.1,-0.8,1.8,2470.664,13.29,0.013,222.0
2021-09-25T00:43:03,42.805,6.029,-0.012,0.007,-0.02,101.0,100.0,100.0,13.4,1505.2,326.6,-0.8,1.8,2470.678,13.29,0.013,300.3
2021-09-25T00:46:03,42.805,6.029,-0.004,0.007,0.004,102.0,100.0,100.0,13.3,1505.2,329.0,-0.8,1.8,2470.646,13.29,0.008,330.3
2021-09-25T00:49:03,42.805,6.029,-0.03,-0.01,-0.033,100.0,101.0,100.0,13.3,1505.2,329.4,-0.8,1.8,2470.618,13.29,0.031,251.6
2021-09-25T00:52:03,42.805,6.029,-0.015,-0.014,-0.022,101.0,100.0,100.0,13.4,1505.2,327.9,-0.7,1.9,2470.656,13.29,0.02,227.0
2021-09-25T00:55:03,42.805,6.029,-0.011,-0.016,-0.016,100.0,102.0,100.0,13.4,1505.2,327.5,-0.8,1.8,2470.636,13.29,0.019,214.5
2021-09-25T00:58:03,42.805,6.029,-0.01,-0.008,-0.013,103.0,99.0,100.0,13.3,1505.2,327.0,-0.8,1.8,2470.577,13.29,0.012,231.3
2021-09-25T01:04:03,42.805,6.029,0.019,-0.011,0.067,104.0,103.0,102.0,13.3,1505.2,326.1,-0.8,1.8,2470.631,13.29,0.021,120.1
2021-09-25T01:07:03,42.805,6.029,0.025,0.017,0.045,104.0,104.0,103.0,13.3,1505.2,329.3,-0.8,1.8,2470.628,13.29,0.03,55.8
2021-09-25T01:10:03,42.805,6.029,-0.006,0.013,0.019,100.0,101.0,99.0,13.3,1505.2,329.2,-0.8,1.8,2470.651,13.29,0.014,335.2
2021-09-25T01:13:03,42.805,6.029,0.012,-0.022,-0.018,101.0,100.0,100.0,13.4,1505.2,329.0,-0.7,1.8,2470.649,13.29,0.025,151.4
2021-09-25T01:16:03,42.805,6.029,-0.018,0.014,0.024,101.0,100.0,100.0,13.4,1505.2,330.5,-0.8,1.8,2470.67,13.29,0.022,307.9
2021-09-25T01:19:03,42.805,6.029,-0.001,-0.004,-0.004,101.0,99.0,100.0,13.4,1505.2,326.8,-0.7,1.8,2470.618,13.29,0.004,194.0
2021-09-25T01:22:03,42.805,6.029,-0.016,-0.011,0.005,101.0,102.0,100.0,13.4,1505.2,326.0,-0.7,1.8,2470.647,13.29,0.019,235.5
2021-09-25T01:25:03,42.805,6.029,-0.004,-0.012,-0.047,100.0,99.0,100.0,13.4,1505.2,328.9,-0.7,1.8,2470.601,13.29,0.012,198.4
2021-09-25T01:28:03,42.805,6.029,0.013,0.002,0.012,100.0,100.0,101.0,13.4,1505.2,327.1,-0.7,1.8,2470.644,13.29,0.013,81.3
2021-09-25T01:31:03,42.805,6.029,-0.002,-0.004,0.011,102.0,100.0,102.0,13.4,1505.2,328.7,-0.7,1.8,2470.573,13.29,0.004,206.6
2021-09-25T01:34:03,42.805,6.029,-0.009,-0.007,0.016,101.0,100.0,100.0,13.4,1505.2,326.1,-0.7,1.9,2470.61,13.29,0.011,232.1
2021-09-25T01:37:03,42.805,6.029,0.0,0.0,0.018,101.0,101.0,99.0,13.4,1505.2,327.1,-0.8,1.8,2470.586,13.29,0.0,0.0
2021-09-25T01:40:03,42.805,6.029,0.016,-0.018,-0.008,101.0,100.0,101.0,13.4,1505.2,330.8,-0.8,1.8,2470.583,13.29,0.024,138.4
2021-09-25T01:43:03,42.805,6.029,0.008,0.004,0.007,100.0,100.0,100.0,13.3,1505.2,325.6,-0.8,1.8,2470.615,13.29,0.008,63.4
2021-09-25T01:46:03,42.805,6.029,0.0,-0.01,0.001,102.0,101.0,100.0,13.4,1505.2,327.1,-0.8,1.8,2470.59,13.29,0.01,180.0
2021-09-25T01:49:03,42.805,6.029,-0.014,0.014,-0.01,103.0,100.0,99.0,13.4,1505.2,328.7,-0.7,1.8,2470.586,13.29,0.019,315.0
2021-09-25T01:52:03,42.805,6.029,0.032,-0.019,-0.006,100.0,101.0,100.0,13.4,1505.2,329.4,-0.7,1.8,2470.571,13.29,0.037,120.7
2021-09-25T01:55:03,42.805,6.029,0.007,-0.008,-0.007,101.0,100.0,100.0,13.4,1505.2,325.6,-0.8,1.8,2470.581,13.29,0.01,138.8
2021-09-25T01:58:03,42.805,6.029,0.016,0.005,0.023,100.0,101.0,100.0,13.4,1505.2,325.7,-0.8,1.8,2470.578,13.29,0.016,72.6
2021-09-25T02:04:03,42.805,6.029,-0.009,0.016,0.004,101.0,101.0,100.0,13.4,1505.2,326.6,-0.8,1.8,2470.634,13.29,0.018,330.6
2021-09-25T02:07:03,42.805,6.029,-0.011,-0.01,-0.035,100.0,100.0,99.0,13.4,1505.2,325.7,-0.8,1.9,2470.656,13.29,0.014,227.7
2021-09-25T02:10:03,42.805,6.029,0.008,0.01,0.006,100.0,102.0,99.0,13.4,1505.2,330.3,-0.8,1.8,2470.606,13.29,0.012,38.7
2021-09-25T02:13:03,42.805,6.029,-0.024,0.012,-0.025,102.0,99.0,100.0,13.4,1505.2,328.0,-0.8,1.9,2470.608,13.28,0.026,296.6
2021-09-25T02:16:03,42.805,6.029,-0.011,0.013,-0.006,101.0,101.0,100.0,13.3,1505.2,329.8,-0.8,1.8,2470.602,13.28,0.017,319.8
2021-09-25T02:19:03,42.805,6.029,0.011,-0.003,-0.007,102.0,100.0,99.0,13.4,1505.2,328.2,-0.8,1.8,2470.602,13.29,0.011,105.3
2021-09-25T02:22:03,42.805,6.029,0.004,-0.001,0.0,99.0,100.0,102.0,13.4,1505.2,327.4,-0.7,1.8,2470.607,13.28,0.004,104.0
2021-09-25T02:25:03,42.805,6.029,0.01,0.006,0.005,102.0,102.0,101.0,13.3,1505.2,327.6,-0.8,1.9,2470.579,13.29,0.011,59.0
2021-09-25T02:28:03,42.805,6.029,-0.019,0.009,0.02,101.0,102.0,100.0,13.4,1505.2,329.2,-0.7,1.8,2470.588,13.29,0.021,295.3
2021-09-25T02:31:03,42.805,6.029,0.017,-0.004,-0.008,101.0,101.0,99.0,13.4,1505.2,326.0,-0.8,1.8,2470.581,13.29,0.017,103.2
2021-09-25T02:34:03,42.805,6.029,-0.004,0.01,0.008,102.0,101.0,99.0,13.3,1505.2,330.8,-0.8,1.8,2470.542,13.28,0.01,338.2
2021-09-25T02:37:03,42.805,6.029,0.0,-0.011,-0.001,100.0,100.0,101.0,13.3,1505.2,326.3,-0.7,1.8,2470.582,13.28,0.011,180.0
2021-09-25T02:40:03,42.805,6.029,0.028,-0.042,-0.047,100.0,103.0,99.0,13.4,1505.2,327.5,-0.7,1.8,2470.588,13.28,0.05,146.3
2021-09-25T02:43:03,42.805,6.029,0.011,0.009,0.024,101.0,101.0,100.0,13.4,1505.2,328.1,-0.8,1.8,2470.578,13.28,0.014,50.7
2021-09-25T02:46:03,42.805,6.029,-0.009,0.008,0.012,102.0,101.0,99.0,13.4,1505.2,330.8,-0.7,1.8,2470.603,13.28,0.012,311.6
2021-09-25T02:49:03,42.805,6.029,0.004,0.027,0.001,100.0,102.0,100.0,13.4,1505.2,331.8,-0.7,1.8,2470.561,13.28,0.027,8.4
2021-09-25T02:52:03,42.805,6.029,0.011,0.007,0.018,100.0,101.0,101.0,13.4,1505.2,330.3,-0.8,1.8,2470.583,13.28,0.013,57.5
2021-09-25T02:55:03,42.805,6.029,-0.012,0.0,-0.004,101.0,101.0,100.0,13.4,1505.2,328.7,-0.7,1.8,2470.534,13.28,0.012,270.0
2021-09-25T02:58:03,42.805,6.029,0.014,-0.001,-0.005,102.0,101.0,98.0,13.4,1505.2,330.0,-0.8,1.9,2470.591,13.28,0.014,94.1
2021-09-25T03:04:03,42.805,6.029,0.009,0.013,0.005,100.0,103.0,100.0,13.4,1505.2,325.5,-0.8,1.8,2470.579,13.28,0.015,34.7
2021-09-25T03:07:03,42.805,6.029,0.014,-0.01,-0.007,102.0,99.0,100.0,13.3,1505.2,326.7,-0.8,1.8,2470.581,13.28,0.017,125.5
2021-09-25T03:10:03,42.805,6.029,0.005,0.016,0.005,101.0,103.0,100.0,13.4,1505.2,326.6,-0.8,1.8,2470.591,13.28,0.016,17.4
2021-09-25T03:13:03,42.805,6.029,0.002,-0.001,0.001,103.0,101.0,98.0,13.4,1505.2,331.4,-0.7,1.8,2470.581,13.28,0.002,116.6
2021-09-25T03:16:03,42.805,6.029,-0.025,0.005,-0.01,101.0,102.0,100.0,13.4,1505.2,330.2,-0.7,1.8,2470.601,13.28,0.025,281.3
2021-09-25T03:19:03,42.805,6.029,0.005,0.001,0.01,103.0,99.0,99.0,13.3,1505.2,330.0,-0.7,1.8,2470.58,13.28,0.005,78.7
2021-09-25T03:22:03,42.805,6.029,0.007,0.009,0.012,100.0,102.0,101.0,13.4,1505.2,329.0,-0.8,1.8,2470.586,13.28,0.011,37.9
2021-09-25T03:25:03,42.805,6.029,0.008,0.0,0.005,101.0,101.0,100.0,13.4,1505.2,326.7,-0.7,1.9,2470.558,13.28,0.008,90.0
2021-09-25T03:28:03,42.805,6.029,0.018,0.0,0.034,100.0,101.0,102.0,13.3,1505.2,328.2,-0.8,1.8,2470.587,13.28,0.018,90.0
2021-09-25T03:31:03,42.805,6.029,0.012,-0.012,0.015,100.0,101.0,100.0,13.3,1505.2,330.5,-0.8,1.8,2470.581,13.28,0.016,135.0
2021-09-25T03:34:03,42.805,6.029,0.021,0.018,0.005,100.0,103.0,100.0,13.4,1505.2,326.9,-0.7,1.8,2470.63,13.28,0.027,49.4
2021-09-25T03:37:03,42.805,6.029,0.01,0.003,-0.022,100.0,103.0,100.0,13.4,1505.2,328.7,-0.8,1.8,2470.588,13.28,0.01,73.3
2021-09-25T03:40:03,42.805,6.029,-0.015,-0.005,-0.036,102.0,100.0,100.0,13.4,1505.2,327.6,-0.7,1.8,2470.598,13.28,0.015,251.6
2021-09-25T03:43:03,42.805,6.029,0.002,0.011,0.011,102.0,101.0,101.0,13.4,1505.2,328.1,-0.8,1.8,2470.576,13.28,0.011,10.3
2021-09-25T03:46:03,42.805,6.029,0.009,0.03,0.03,100.0,102.0,100.0,13.4,1505.2,327.1,-0.7,1.8,2470.588,13.28,0.031,16.7
2021-09-25T03:49:03,42.805,6.029,0.003,-0.002,-0.002,102.0,101.0,101.0,13.4,1505.2,325.7,-0.7,1.8,2470.581,13.28,0.003,123.7
2021-09-25T03:52:03,42.805,6.029,0.019,-0.013,-0.018,101.0,103.0,100.0,13.4,1505.2,327.9,-0.8,1.8,2470.584,13.28,0.023,124.4
2021-09-25T03:55:03,42.805,6.029,0.024,0.001,0.002,101.0,102.0,101.0,13.4,1505.2,328.8,-0.8,1.8,2470.581,13.28,0.024,87.6
2021-09-25T03:58:03,42.805,6.029,-0.002,0.009,-0.004,102.0,101.0,101.0,13.4,1505.2,327.7,-0.8,1.8,2470.556,13.28,0.009,347.5
2021-09-25T04:04:03,42.805,6.029,0.0,-0.01,-0.013,102.0,102.0,101.0,13.4,1505.2,329.9,-0.8,1.8,2470.613,13.28,0.01,180.0
2021-09-25T04:07:03,42.805,6.029,0.028,-0.004,0.008,101.0,102.0,100.0,13.4,1505.2,326.0,-0.7,1.8,2470.617,13.28,0.028,98.1
2021-09-25T04:10:03,42.805,6.029,0.016,-0.013,0.004,101.0,103.0,100.0,13.4,1505.2,326.9,-0.8,1.9,2470.632,13.28,0.02,129.1
2021-09-25T04:13:03,42.805,6.029,0.029,0.003,-0.008,101.0,101.0,100.0,13.3,1505.2,326.0,-0.8,1.8,2470.559,13.28,0.029,84.1
2021-09-25T04:16:03,42.805,6.029,0.012,0.019,0.0,100.0,103.0,101.0,13.4,1505.2,331.1,-0.8,1.9,2470.587,13.28,0.022,32.3
2021-09-25T04:19:03,42.805,6.029,0.017,-0.002,-0.003,99.0,101.0,101.0,13.4,1505.2,327.6,-0.8,1.8,2470.596,13.28,0.017,96.7
2021-09-25T04:22:03,42.805,6.029,-0.001,0.007,-0.003,104.0,101.0,99.0,13.4,1505.2,330.5,-0.7,1.8,2470.536,13.28,0.007,351.9
2021-09-25T04:25:03,42.805,6.029,0.008,-0.021,-0.014,101.0,101.0,101.0,13.4,1505.2,327.6,-0.7,1.8,2470.574,13.28,0.022,159.1
2021-09-25T04:28:03,42.805,6.029,0.0,0.001,0.012,102.0,102.0,100.0,13.4,1505.2,331.1,-0.8,1.9,2470.581,13.28,0.001,0.0
2021-09-25T04:31:03,42.805,6.029,0.011,-0.007,0.008,102.0,102.0,101.0,13.4,1505.2,327.4,-0.8,1.9,2470.572,13.28,0.013,122.5
2021-09-25T04:34:03,42.805,6.029,0.014,-0.017,-0.001,103.0,102.0,100.0,13.3,1505.2,328.0,-0.7,1.8,2470.583,13.28,0.022,140.5
2021-09-25T04:37:03,42.805,6.029,0.039,-0.003,0.008,102.0,102.0,101.0,13.3,1505.2,327.8,-0.7,1.8,2470.564,13.28,0.039,94.4
2021-09-25T04:40:03,42.805,6.029,0.015,0.0,0.011,101.0,103.0,99.0,13.3,1505.2,328.3,-0.7,1.9,2470.559,13.28,0.015,90.0
2021-09-25T04:43:03,42.805,6.029,0.035,0.01,0.007,101.0,102.0,101.0,13.4,1505.2,328.2,-0.8,1.8,2470.582,13.28,0.036,74.1
2021-09-25T04:46:03,42.805,6.029,0.017,-0.003,-0.009,101.0,102.0,102.0,13.4,1505.2,327.3,-0.8,1.8,2470.581,13.28,0.017,100.0
2021-09-25T04:49:03,42.805,6.029,0.034,-0.029,-0.012,102.0,101.0,101.0,13.4,1505.2,327.4,-0.8,1.8,2470.574,13.28,0.044,130.5
2021-09-25T04:52:03,42.805,6.029,0.045,-0.034,0.002,101.0,101.0,100.0,13.4,1505.2,328.6,-0.8,1.9,2470.582,13.28,0.056,127.1
2021-09-25T04:55:03,42.805,6.029,0.013,-0.028,-0.027,102.0,100.0,101.0,13.4,1505.2,329.5,-0.7,1.8,2470.604,13.28,0.03,155.1
2021-09-25T04:58:03,42.805,6.029,0.01,-0.021,-0.009,101.0,100.0,100.0,13.4,1505.2,329.7,-0.7,1.9,2470.557,13.28,0.023,154.5
2021-09-25T05:04:03,42.805,6.029,0.026,-0.027,-0.018,101.0,99.0,101.0,13.4,1505.2,331.3,-0.8,1.8,2470.62,13.28,0.037,136.1
2021-09-25T05:07:03,42.805,6.029,0.032,-0.025,0.003,101.0,102.0,99.0,13.4,1505.2,329.1,-0.7,1.8,2470.613,13.28,0.04,128.0
2021-09-25T05:10:03,42.805,6.029,0.006,-0.01,-0.001,102.0,101.0,99.0,13.4,1505.2,329.5,-0.7,1.8,2470.641,13.28,0.011,149.0
2021-09-25T05:13:03,42.805,6.029,0.016,-0.005,0.006,101.0,100.0,100.0,13.4,1505.2,331.4,-0.8,1.8,2470.632,13.28,0.016,107.4
2021-09-25T05:16:03,42.805,6.029,0.04,-0.027,-0.002,102.0,99.0,100.0,13.4,1505.2,327.4,-0.8,1.8,2470.623,13.28,0.048,124.0
2021-09-25T05:19:03,42.805,6.029,0.038,-0.014,0.009,102.0,104.0,100.0,13.3,1505.2,325.3,-0.8,1.8,2470.634,13.28,0.04,110.2
2021-09-25T05:22:03,42.805,6.029,0.03,0.0,-0.017,101.0,101.0,100.0,13.4,1505.2,327.3,-0.7,1.9,2470.564,13.28,0.03,90.0
2021-09-25T05:25:03,42.805,6.029,0.04,-0.017,0.017,102.0,100.0,100.0,13.4,1505.2,327.6,-0.7,1.8,2470.613,13.28,0.043,113.0
2021-09-25T05:28:03,42.805,6.029,0.028,-0.018,0.006,100.0,101.0,101.0,13.4,1505.2,328.1,-0.7,1.8,2470.586,13.28,0.033,122.7
2021-09-25T05:31:03,42.805,6.029,0.023,-0.031,-0.016,101.0,101.0,100.0,13.3,1505.2,331.9,-0.7,1.8,2470.611,13.28,0.038,143.4
2021-09-25T05:34:03,42.805,6.029,0.012,-0.027,0.004,101.0,101.0,99.0,13.4,1505.2,329.5,-0.8,1.8,2470.609,13.28,0.029,156.0
2021-09-25T05:37:03,42.805,6.029,0.036,-0.014,-0.004,102.0,99.0,100.0,13.4,1505.2,330.0,-0.7,1.8,2470.564,13.28,0.038,111.2
2021-09-25T05:40:03,42.805,6.029,0.028,-0.041,-0.009,100.0,101.0,100.0,13.4,1505.2,327.5,-0.7,1.8,2470.607,13.28,0.049,145.7
2021-09-25T05:43:03,42.805,6.029,0.041,-0.024,0.007,100.0,102.0,101.0,13.4,1505.2,329.7,-0.8,1.8,2470.629,13.28,0.047,120.3
2021-09-25T05:46:03,42.805,6.029,0.026,-0.02,0.0,99.0,102.0,100.0,13.3,1505.2,331.4,-0.8,1.8,2470.579,13.28,0.032,127.6
2021-09-25T05:49:03,42.805,6.029,0.031,-0.022,-0.034,99.0,102.0,100.0,13.4,1505.2,328.4,-0.8,1.8,2470.642,13.28,0.038,125.4
2021-09-25T05:52:03,42.805,6.029,0.018,-0.003,0.014,102.0,98.0,101.0,13.3,1505.2,325.6,-0.8,1.9,2470.569,13.28,0.018,99.5
2021-09-25T05:55:03,42.805,6.029,0.033,-0.023,-0.025,101.0,101.0,101.0,13.3,1505.2,325.5,-0.7,1.8,2470.625,13.28,0.04,124.9
2021-09-25T05:58:03,42.805,6.029,0.029,-0.031,0.007,101.0,101.0,100.0,13.4,1505.2,328.0,-0.7,1.8,2470.593,13.28,0.042,136.9
2021-09-25T06:04:03,42.805,6.029,0.045,-0.037,0.0,101.0,100.0,101.0,13.4,1505.2,331.4,-0.8,1.8,2470.677,13.28,0.058,129.4
2021-09-25T06:07:03,42.805,6.029,0.03,-0.019,-0.006,101.0,100.0,101.0,13.3,1505.2,330.1,-0.8,1.9,2470.661,13.28,0.035,122.3
2021-09-25T06:10:03,42.805,6.029,0.048,-0.024,-0.001,102.0,100.0,99.0,13.4,1505.2,327.4,-0.7,1.8,2470.664,13.28,0.053,116.6
2021-09-25T06:13:03,42.805,6.029,0.008,0.006,0.041,99.0,100.0,101.0,13.4,1505.2,325.5,-0.7,1.8,2470.643,13.28,0.01,53.1
2021-09-25T06:16:03,42.805,6.029,0.003,-0.002,0.0,101.0,101.0,99.0,13.4,1505.2,328.5,-0.8,1.8,2470.642,13.28,0.003,123.7
2021-09-25T06:19:03,42.805,6.029,0.006,0.003,0.014,100.0,100.0,100.0,13.4,1505.2,329.3,-0.8,1.8,2470.634,13.28,0.006,63.4
2021-09-25T06:22:03,42.805,6.029,0.013,-0.003,0.006,100.0,100.0,100.0,13.4,1505.2,326.7,-0.7,1.8,2470.62,13.28,0.013,103.0
2021-09-25T06:25:03,42.805,6.029,0.034,-0.022,0.02,99.0,101.0,99.0,13.4,1505.2,329.5,-0.7,1.8,2470.672,13.28,0.04,122.9
2021-09-25T06:28:03,42.805,6.029,0.039,-0.033,-0.017,101.0,100.0,100.0,13.4,1505.2,327.6,-0.7,1.8,2470.651,13.28,0.051,130.2
2021-09-25T06:31:03,42.805,6.029,0.032,-0.014,0.013,102.0,99.0,100.0,13.3,1505.2,326.6,-0.7,1.8,2470.647,13.28,0.034,113.6
2021-09-25T06:34:03,42.805,6.029,0.02,-0.022,0.004,101.0,99.0,99.0,13.3,1505.2,330.2,-0.7,1.8,2470.661,13.28,0.029,137.7
2021-09-25T06:37:03,42.805,6.029,0.033,-0.046,-0.039,101.0,100.0,99.0,13.3,1505.2,329.6,-0.8,1.8,2470.633,13.28,0.056,144.3
2021-09-25T06:40:03,42.805,6.029,0.021,0.015,0.008,101.0,100.0,100.0,13.4,1505.2,330.3,-0.8,1.8,2470.618,13.28,0.025,54.5
2021-09-25T06:43:03,42.805,6.029,0.017,-0.003,0.031,100.0,101.0,100.0,13.4,1505.2,329.6,-0.7,1.8,2470.649,13.28,0.017,100.0
2021-09-25T06:46:03,42.805,6.029,0.013,-0.02,-0.027,100.0,101.0,100.0,13.4,1505.2,326.7,-0.8,1.8,2470.653,13.28,0.023,147.0
2021-09-25T06:49:03,42.805,6.029,0.017,-0.008,0.0,100.0,102.0,100.0,13.4,1505.2,328.1,-0.7,1.8,2470.624,13.28,0.018,115.2
2021-09-25T06:52:03,42.805,6.029,0.038,0.004,0.005,101.0,100.0,99.0,13.3,1505.2,328.6,-0.8,1.8,2470.675,13.28,0.038,84.0
2021-09-25T06:55:03,42.805,6.029,0.042,-0.006,0.014,101.0,100.0,101.0,13.4,1505.2,326.7,-0.8,1.8,2470.648,13.28,0.042,98.1
2021-09-25T06:58:03,42.805,6.029,0.02,-0.024,0.021,99.0,103.0,100.0,13.4,1505.2,330.3,-0.8,1.8,2470.625,13.28,0.031,140.2
2021-09-25T07:04:03,42.805,6.029,-0.006,-0.013,-0.001,101.0,101.0,100.0,13.3,1505.2,326.5,-0.8,1.8,2470.74,13.28,0.014,204.8
2021-09-25T07:07:03,42.805,6.029,0.025,-0.001,0.019,100.0,102.0,99.0,13.4,1505.2,329.1,-0.8,1.8,2470.717,13.28,0.025,92.3
2021-09-25T07:10:03,42.805,6.029,-0.001,0.001,-0.025,100.0,100.0,100.0,13.3,1505.2,326.7,-0.8,1.8,2470.68,13.28,0.001,315.0
2021-09-25T07:13:03,42.805,6.029,0.007,0.0,-0.013,99.0,101.0,101.0,13.3,1505.2,329.6,-0.7,1.8,2470.691,13.28,0.007,90.0
2021-09-25T07:16:03,42.805,6.029,0.023,-0.015,0.022,100.0,101.0,101.0,13.4,1505.2,326.6,-0.7,1.8,2470.669,13.28,0.027,123.1
2021-09-25T07:19:03,42.805,6.029,0.032,-0.006,-0.004,102.0,101.0,99.0,13.4,1505.2,327.9,-0.8,1.8,2470.683,13.28,0.032,100.6
2021-09-25T07:22:03,42.805,6.029,0.021,-0.004,0.003,101.0,102.0,99.0,13.4,1505.2,324.8,-0.8,1.8,2470.692,13.28,0.021,100.8
2021-09-25T07:25:03,42.805,6.029,0.035,-0.019,-0.019,100.0,100.0,100.0,13.3,1505.2,328.1,-0.8,1.8,2470.706,13.28,0.039,118.5
2021-09-25T07:28:03,42.805,6.029,0.011,-0.011,-0.015,101.0,100.0,99.0,13.4,1505.2,327.7,-0.7,1.8,2470.658,13.28,0.015,135.0
2021-09-25T07:31:03,42.805,6.029,0.011,-0.015,0.017,102.0,99.0,100.0,13.3,1505.2,331.6,-0.8,1.8,2470.69,13.28,0.018,143.7
2021-09-25T07:34:03,42.805,6.029,0.023,0.002,-0.003,102.0,101.0,99.0,13.4,1505.2,331.1,-0.8,1.8,2470.684,13.28,0.023,85.0
2021-09-25T07:37:03,42.805,6.029,0.013,0.01,0.002,99.0,100.0,101.0,13.4,1505.2,330.8,-0.7,1.8,2470.712,13.28,0.016,52.4
2021-09-25T07:40:03,42.805,6.029,0.004,-0.008,0.014,101.0,100.0,100.0,13.4,1505.2,331.7,-0.7,1.8,2470.702,13.28,0.008,153.4
2021-09-25T07:43:03,42.805,6.029,0.043,-0.02,-0.021,101.0,101.0,100.0,13.4,1505.2,328.4,-0.7,1.8,2470.731,13.28,0.047,114.9
2021-09-25T07:46:03,42.805,6.029,0.042,-0.007,0.012,100.0,101.0,100.0,13.4,1505.2,326.6,-0.7,1.9,2470.713,13.28,0.042,99.5
2021-09-25T07:49:03,42.805,6.029,0.019,-0.022,-0.016,101.0,101.0,100.0,13.4,1505.2,326.9,-0.7,1.8,2470.717,13.28,0.029,139.2
2021-09-25T07:52:03,42.805,6.029,0.027,-0.012,0.0,101.0,101.0,100.0,13.4,1505.2,329.9,-0.7,1.8,2470.722,13.28,0.029,114.0
2021-09-25T07:55:03,42.805,6.029,0.031,-0.015,0.002,101.0,101.0,101.0,13.4,1505.2,325.8,-0.7,1.8,2470.713,13.28,0.034,115.8
2021-09-25T07:58:03,42.805,6.029,0.019,0.004,0.015,102.0,100.0,100.0,13.3,1505.2,329.3,-0.7,1.8,2470.692,13.28,0.019,78.1
2021-09-25T08:04:03,42.805,6.029,0.041,-0.012,0.001,101.0,101.0,100.0,13.4,1505.2,329.9,-0.8,1.8,2470.766,13.28,0.042,106.3
2021-09-25T08:07:03,42.805,6.029,0.03,-0.013,-0.006,101.0,102.0,99.0,13.4,1505.2,326.7,-0.7,1.8,2470.75,13.28,0.032,113.4
2021-09-25T08:10:03,42.805,6.029,0.033,-0.002,0.013,100.0,102.0,100.0,13.4,1505.2,326.6,-0.8,1.8,2470.783,13.28,0.033,93.5
2021-09-25T08:13:03,42.805,6.029,0.023,-0.007,-0.006,102.0,100.0,100.0,13.4,1505.2,326.3,-0.7,1.8,2470.758,13.28,0.024,106.9
2021-09-25T08:16:03,42.805,6.029,0.027,-0.003,-0.017,101.0,101.0,100.0,13.4,1505.2,324.8,-0.8,1.8,2470.748,13.28,0.027,96.3
2021-09-25T08:19:03,42.805,6.029,0.033,0.016,0.038,101.0,101.0,100.0,13.4,1505.2,325.3,-0.8,1.9,2470.729,13.28,0.036,64.1
2021-09-25T08:22:03,42.805,6.029,0.029,-0.018,-0.021,101.0,101.0,100.0,13.4,1505.2,325.8,-0.7,1.8,2470.735,13.28,0.034,121.8
2021-09-25T08:25:03,42.805,6.029,0.004,-0.019,-0.025,100.0,100.0,101.0,13.3,1505.2,326.5,-0.8,1.8,2470.728,13.28,0.019,168.1
2021-09-25T08:28:03,42.805,6.029,0.018,0.0,-0.013,101.0,102.0,99.0,13.4,1505.2,329.5,-0.8,1.8,2470.75,13.28,0.018,90.0
2021-09-25T08:31:03,42.805,6.029,0.023,-0.007,-0.03,102.0,101.0,100.0,13.3,1505.2,331.5,-0.7,1.8,2470.746,13.28,0.024,106.9
2021-09-25T08:34:03,42.805,6.029,0.005,-0.005,-0.029,101.0,102.0,99.0,13.3,1505.2,327.4,-0.8,1.8,2470.721,13.28,0.007,135.0
2021-09-25T08:37:03,42.805,6.029,0.037,-0.005,0.001,101.0,101.0,100.0,13.4,1505.2,329.2,-0.8,1.8,2470.729,13.28,0.037,97.7
2021-09-25T08:40:03,42.805,6.029,0.005,0.004,-0.036,100.0,101.0,100.0,13.3,1505.2,328.4,-0.7,1.8,2470.731,13.28,0.006,51.3
2021-09-25T08:43:03,42.805,6.029,0.011,-0.027,-0.012,101.0,101.0,100.0,13.4,1505.2,326.6,-0.8,1.8,2470.727,13.28,0.029,157.8
2021-09-25T08:46:03,42.805,6.029,-0.001,-0.005,-0.002,100.0,101.0,101.0,13.4,1505.2,329.7,-0.8,1.9,2470.742,13.28,0.005,191.3
2021-09-25T08:49:03,42.805,6.029,0.026,-0.015,0.015,99.0,102.0,101.0,13.3,1505.2,328.4,-0.8,1.8,2470.722,13.28,0.03,120.0
2021-09-25T08:52:03,42.805,6.029,0.035,-0.009,-0.007,101.0,102.0,101.0,13.4,1505.2,331.2,-0.7,1.8,2470.721,13.28,0.036,104.4
2021-09-25T08:55:03,42.805,6.029,0.003,-0.003,0.0,102.0,100.0,101.0,13.4,1505.2,329.3,-0.7,1.8,2470.743,13.28,0.004,135.0
2021-09-25T08:58:03,42.805,6.029,0.026,-0.004,-0.004,101.0,101.0,100.0,13.4,1505.2,329.8,-0.8,1.8,2470.765,13.28,0.026,98.7
2021-09-25T09:04:03,42.805,6.029,0.002,0.013,-0.021,101.0,101.0,100.0,13.3,1505.2,326.4,-0.8,1.8,2470.778,13.28,0.013,8.7
2021-09-25T09:07:03,42.805,6.029,0.015,-0.014,-0.032,102.0,102.0,100.0,13.4,1505.2,329.1,-0.7,1.8,2470.758,13.28,0.02,133.0
2021-09-25T09:10:03,42.805,6.029,0.022,-0.015,-0.042,101.0,102.0,100.0,13.4,1505.2,329.8,-0.8,1.8,2470.749,13.28,0.026,124.3
2021-09-25T09:13:03,42.805,6.029,0.005,-0.002,-0.015,99.0,100.0,100.0,13.4,1505.2,329.8,-0.7,1.9,2470.781,13.28,0.005,111.8
2021-09-25T09:16:03,42.805,6.029,0.027,-0.016,-0.01,99.0,101.0,101.0,13.4,1505.2,328.1,-0.8,1.8,2470.761,13.28,0.031,120.7
2021-09-25T09:19:03,42.805,6.029,0.025,-0.002,0.013,101.0,101.0,100.0,13.3,1505.2,329.6,-0.7,1.8,2470.781,13.28,0.025,94.6
2021-09-25T09:22:03,42.805,6.029,0.024,-0.009,-0.026,102.0,100.0,101.0,13.4,1505.2,328.1,-0.8,1.8,2470.751,13.28,0.025,110.6
2021-09-25T09:25:03,42.805,6.029,0.028,-0.005,-0.003,101.0,103.0,99.0,13.4,1505.2,328.6,-0.7,1.8,2470.775,13.28,0.028,100.1
2021-09-25T09:28:03,42.805,6.029,0.0,-0.012,-0.031,103.0,99.0,100.0,13.4,1505.2,330.2,-0.8,1.8,2470.711,13.28,0.012,180.0
2021-09-25T09:31:03,42.805,6.029,-0.006,0.001,-0.035,101.0,101.0,101.0,13.4,1505.2,327.8,-0.8,1.8,2470.719,13.28,0.006,279.5
2021-09-25T09:34:03,42.805,6.029,0.024,-0.029,-0.011,99.0,99.0,102.0,13.3,1505.2,325.7,-0.8,1.8,2470.731,13.28,0.037,140.4
2021-09-25T09:37:03,42.805,6.029,0.019,0.001,0.016,100.0,101.0,100.0,13.4,1505.2,328.6,-0.8,1.8,2470.756,13.28,0.019,87.0
2021-09-25T09:40:03,42.805,6.029,0.022,0.001,-0.032,100.0,101.0,100.0,13.4,1505.2,327.1,-0.7,1.8,2470.778,13.28,0.022,87.4
2021-09-25T09:43:03,42.805,6.029,0.042,0.003,0.007,101.0,101.0,99.0,13.3,1505.2,330.5,-0.8,1.8,2470.759,13.28,0.042,85.9
2021-09-25T09:46:03,42.805,6.029,0.003,0.015,-0.01,100.0,101.0,100.0,13.4,1505.2,330.5,-0.8,1.8,2470.74,13.28,0.015,11.3
2021-09-25T09:49:03,42.805,6.029,0.024,-0.004,0.014,102.0,100.0,100.0,13.4,1505.2,327.3,-0.8,1.8,2470.758,13.28,0.024,99.5
2021-09-25T09:52:03,42.805,6.029,0.005,0.003,-0.029,100.0,100.0,100.0,13.3,1505.2,327.8,-0.8,1.8,2470.735,13.28,0.005,59.0
2021-09-25T09:55:03,42.805,6.029,0.021,0.0,0.009,100.0,102.0,100.0,13.4,1505.2,327.9,-0.7,1.8,2470.757,13.28,0.021,90.0
2021-09-25T09:58:03,42.805,6.029,0.04,0.006,0.025,100.0,102.0,100.0,13.4,1505.2,327.3,-0.8,1.8,2470.717,13.28,0.04,81.5
2021-09-25T10:04:03,42.805,6.029,0.006,0.016,-0.007,103.0,99.0,100.0,13.3,1505.2,327.0,-0.8,1.8,2470.735,13.28,0.017,20.6